[[{"header":{"parameterUnit":"m.s-1","parameterCategory":1,"la1":30.2991,"la2":30.254,"lo1":-89.0895,"lo2":-89.0444,"dy":0.0017,"dx":0.0017,"nx":28,"ny":28,"refTime":"2026-01-02T03:00:00:Z","depth":0,"parameterNumber":2,"parameterNumberName":"U-component_of_WINDS"},"data":[0,0,0,0,0,0,0,0,0,0,0,0,0,0,0,0,0,0,0,0,0,0,0,0,0,0,0,0,0,0,0,0,0,0,0,0,0,0,0,0,0,0,0,0,0,0,0,0,0,0,0,0,0,0,0,0,0,0,4.0915,4.0915,0,4.0895,4.0895,4.0895,4.0798,4.0796,4.0793,4.0791,4.0771,4.0772,4.0774,0,0,0,0,0,0,0,0,0,0,0,0,0,4.0871,4.0872,4.0915,4.0915,4.0915,4.0895,4.0895,4.0895,4.0798,4.0796,4.0793,4.079,4.077,4.0772,4.0774,0,0,0,0,0,0,0,0,0,0,0,0,0,4.0875,4.0873,4.0915,4.0864,4.086,4.0895,4.0895,4.0895,4.0799,4.0796,4.0792,4.0789,4.077,4.0772,4.0774,4.0858,0,0,4.0782,4.0783,0,0,0,0,0,0,0,0,4.0874,4.0876,4.0872,4.0868,4.0863,4.0846,4.0872,4.0882,4.08,4.0822,4.0791,4.0787,4.0799,4.0798,4.0802,4.0857,4.0856,4.0782,4.0783,4.0784,4.0785,0,0,0,0,0,0,0,4.0874,4.0877,4.0907,4.0872,4.0866,4.0843,4.0839,4.0873,4.083,4.082,4.0813,4.0812,4.0795,4.08,4.0801,4.0855,4.0782,4.0784,4.0785,4.0786,4.0977,4.0981,0,0,0,0,0,0,4.0881,4.0877,4.0908,4.0907,4.086,4.0846,4.0843,4.0855,4.0829,4.0822,4.0815,4.0807,4.0798,4.0798,4.08,4.0895,4.0784,4.0787,4.0788,4.0974,4.0978,4.0982,0,0,0,0,0,0,4.0881,4.0885,4.0909,4.089,4.0891,4.0851,4.0865,4.0856,4.086,4.0825,4.0817,4.0827,4.0795,4.0796,4.0844,4.0893,4.0788,4.079,4.0969,4.0975,4.098,4.1087,0,0,0,0,0,0,4.088,4.0885,4.0916,4.0891,4.0893,4.0953,4.0868,4.0858,4.0865,4.0855,4.0835,4.0828,4.0792,4.0841,4.0846,4.0894,4.0792,4.0965,4.0972,4.0978,4.1079,4.1095,4.1109,0,0,0,0,0,4.0878,4.0947,4.0918,4.0922,4.093,4.0956,4.0957,4.0914,4.0869,4.09,4.0877,4.0829,4.0887,4.0847,4.0852,4.0901,4.0962,4.097,4.0978,4.1072,4.1092,4.1109,0,0,0,0,0,0,4.0978,4.0943,4.091,4.0973,4.0969,4.094,4.0977,4.0937,4.0945,4.0935,4.0882,4.0878,4.0934,4.0922,4.0878,4.0981,4.0916,4.0926,4.0986,4.1005,4.102,4.102,4.0794,0,0,0,0,0,4.1008,4.1032,4.0999,4.1058,4.1057,4.1018,4.1028,4.0995,4.0988,4.0986,4.0967,4.0962,4.0979,4.0991,4.1005,4.1077,4.1071,4.1114,4.1129,4.1142,4.115,4.1187,4.1206,4.1009,4.1009,4.1009,0,0,4.1068,4.1052,4.107,4.1077,4.107,4.1096,4.1017,4.1048,4.1066,4.099,4.1034,4.102,4.1011,4.1072,4.1097,4.1064,4.1204,4.1153,4.1163,4.1164,4.1198,4.1216,4.1233,4.1015,4.1014,4.1013,0,0,4.1191,4.1182,4.1229,4.1224,4.1214,4.1188,4.1199,4.1177,4.1165,4.1208,4.1152,4.1174,4.1204,4.12,4.1202,4.1326,4.1282,4.1333,4.1412,4.1449,4.1464,4.1478,4.1521,4.1537,4.1342,4.1342,4.1342,0,4.1268,4.1304,4.1258,4.1293,4.1298,4.1231,4.1279,4.1276,4.1271,4.1276,4.1239,4.1277,4.1266,4.1324,4.1355,4.1359,4.137,4.1334,4.1466,4.1479,4.1491,4.1531,4.1548,4.1348,4.1347,4.1347,4.1346,0,4.1398,4.1425,4.1465,4.1462,4.1471,4.1512,4.1473,4.1488,4.1456,4.1434,4.1479,4.1464,4.1474,4.1486,4.1454,4.154,4.1519,4.1475,4.1409,4.1516,4.1554,4.1569,4.1357,4.1355,4.1353,4.1351,0,0,4.1581,4.1554,4.1569,4.1567,4.1553,4.1572,4.1611,4.162,4.1634,4.1634,4.1665,4.1693,4.1652,4.1655,4.1623,4.1655,4.1754,4.1607,4.1606,4.1634,4.1846,4.1879,4.1897,4.1725,4.1728,4.173,4.1847,0,4.1698,4.1762,4.1722,4.1792,4.1816,4.1754,4.1788,4.1782,4.1764,4.1781,4.176,4.1781,4.1726,4.1727,4.1757,4.1736,4.1795,4.1727,4.1752,4.1754,4.1755,4.1917,4.1951,4.2062,4.1861,4.1864,4.1866,0,4.1842,4.1849,4.1921,4.1902,4.191,4.1941,4.1947,4.1965,4.1958,4.1942,4.1946,4.1906,4.1943,4.1879,4.1929,4.1883,4.1892,4.1883,4.1886,4.1886,4.1815,4.192,4.2096,4.2112,4.1888,4.1886,4.1885,0,4.1967,4.1994,4.204,4.2041,4.202,4.2043,4.2036,4.2026,4.2034,4.204,4.2045,4.2055,4.2061,4.207,4.2034,4.1991,4.2088,4.2021,4.2075,4.2076,4.2097,4.2096,4.2276,4.2105,4.2105,4.2105,4.2105,0,4.2101,4.2147,4.2096,4.2125,4.2175,4.213,4.2181,4.2167,4.2159,4.2184,4.2132,4.2156,4.2108,4.2128,4.21,4.2145,4.2148,4.2136,4.2128,4.214,4.2141,4.2143,4.2134,4.2109,4.2108,4.2107,4.2107,0,4.2247,4.2216,4.2262,4.2239,4.2235,4.2273,4.2253,4.2279,4.2257,4.2289,4.2294,4.226,4.2281,4.2247,4.2263,4.2245,4.2307,4.2288,4.2309,4.2303,4.2358,4.2353,4.2544,4.2567,4.2384,4.2386,4.2388,0,4.2333,4.2368,4.2349,4.2362,4.2358,4.2379,4.2388,4.2346,4.2357,4.2353,4.2379,4.2396,4.2406,4.2442,4.2419,4.2432,4.2411,4.2478,4.2413,4.2424,4.2411,4.2409,4.2412,4.2491,4.2493,4.2495,4.2496,0,4.2489,4.2472,4.2487,4.2497,4.2509,4.2515,4.2516,4.253,4.2486,4.2501,4.2522,4.253,4.2548,4.2565,4.2572,4.2564,4.2523,4.2517,4.253,4.2541,4.2552,4.2546,4.2344,4.2512,4.2511,4.251,4.2509,4.2508,4.2607,4.2635,4.2626,4.2644,4.2642,4.2645,4.2668,4.265,4.2666,4.2677,4.2652,4.2679,4.2672,4.2677,4.2675,4.2695,4.2666,4.2685,4.2689,4.2694,4.2702,4.2551,4.2697,4.2696,4.2696,4.2695,4.2695,0,4.2759,4.2751,4.2769,4.2773,4.2788,4.2749,4.2749,4.2764,4.2788,4.2786,4.2798,4.2822,4.2839,4.2818,4.2831,4.2851,4.2833,4.2856,4.2853,4.2852,4.2728,4.2715,4.2871,4.2871,4.2871,4.2871,4.2871,4.2871,4.284,4.2884,4.2867,4.291,4.2901,4.2927,4.2931,4.2934,4.2931,4.2961,4.2974,4.2961,4.2951,4.2963,4.2977,4.2971,4.2977,4.3007,4.2994,4.2878,4.2861,4.2844,4.2832,4.3009,4.3009,4.3115,4.3116,4.3117]},{"header":{"parameterUnit":"m.s-1","parameterCategory":1,"la1":30.2991,"la2":30.254,"lo1":-89.0895,"lo2":-89.0444,"dy":0.0017,"dx":0.0017,"nx":28,"ny":28,"refTime":"2026-01-02T03:00:00:Z","depth":0,"parameterNumber":3,"parameterNumberName":"V-component_of_WINDS"},"data":[0,0,0,0,0,0,0,0,0,0,0,0,0,0,0,0,0,0,0,0,0,0,0,0,0,0,0,0,0,0,0,0,0,0,0,0,0,0,0,0,0,0,0,0,0,0,0,0,0,0,0,0,0,0,0,0,0,0,5.6535,5.6538,0,5.6857,5.6861,5.6865,5.6934,5.6932,5.693,5.6927,5.7254,5.7265,5.7276,0,0,0,0,0,0,0,0,0,0,0,0,0,5.5975,5.5985,5.6535,5.6539,5.6543,5.6857,5.6861,5.6865,5.6935,5.6932,5.6929,5.6926,5.7251,5.7264,5.7277,0,0,0,0,0,0,0,0,0,0,0,0,0,5.625,5.5989,5.6534,5.6615,5.6626,5.6856,5.6861,5.6867,5.6935,5.6932,5.6928,5.6925,5.7247,5.7262,5.7278,5.745,0,0,5.7328,5.7335,0,0,0,0,0,0,0,0,5.6234,5.627,5.6599,5.661,5.6622,5.6852,5.6784,5.7062,5.6936,5.6818,5.6927,5.6923,5.7123,5.7149,5.7217,5.7465,5.7479,5.733,5.734,5.7347,5.7351,0,0,0,0,0,0,0,5.6215,5.6257,5.6662,5.6604,5.6618,5.6634,5.6669,5.6837,5.6986,5.6828,5.6833,5.6871,5.7129,5.7202,5.7226,5.7484,5.7329,5.7344,5.7354,5.736,5.7887,5.7891,0,0,0,0,0,0,5.6182,5.6241,5.6652,5.6672,5.6416,5.6647,5.6687,5.6782,5.6984,5.7012,5.6874,5.6873,5.7175,5.7206,5.7237,5.7451,5.7347,5.7362,5.7371,5.7883,5.7888,5.7892,0,0,0,0,0,0,5.617,5.6218,5.6639,5.6458,5.6513,5.6661,5.6767,5.679,5.6863,5.7019,5.7046,5.6921,5.7174,5.7214,5.7396,5.7463,5.7369,5.7384,5.7878,5.7884,5.789,5.7878,0,0,0,0,0,0,5.6154,5.6214,5.6281,5.6459,5.6522,5.6793,5.6771,5.6799,5.6891,5.6893,5.7071,5.7096,5.7174,5.7372,5.7413,5.7484,5.7397,5.7873,5.7881,5.7888,5.7873,5.7883,5.7892,0,0,0,0,0,5.6133,5.6264,5.6284,5.6333,5.661,5.6797,5.6833,5.6921,5.6896,5.6965,5.7065,5.7091,5.7449,5.739,5.7436,5.7513,5.7869,5.7878,5.7888,5.7869,5.7881,5.7892,0,0,0,0,0,0,5.6089,5.6289,5.6313,5.6506,5.6634,5.6809,5.6897,5.6931,5.7068,5.7065,5.7167,5.7206,5.7381,5.7466,5.7396,5.7689,5.7658,5.7677,5.7628,5.7641,5.765,5.7625,5.741,0,0,0,0,0,5.6101,5.6238,5.6405,5.6559,5.6622,5.6748,5.6833,5.689,5.7027,5.7081,5.7195,5.7325,5.7467,5.7559,5.7698,5.7886,5.7925,5.7962,5.7971,5.7978,5.7993,5.8098,5.8116,5.7923,5.7923,5.7923,0,0,5.6128,5.6255,5.6335,5.6553,5.6659,5.6797,5.6794,5.694,5.7043,5.7103,5.7282,5.737,5.7522,5.7708,5.7795,5.7783,5.8055,5.799,5.7994,5.8006,5.8109,5.8128,5.8144,5.793,5.7929,5.7928,0,0,5.6249,5.6358,5.6498,5.6605,5.6766,5.685,5.6883,5.7053,5.7114,5.7295,5.7343,5.7466,5.7709,5.7816,5.7902,5.8062,5.8091,5.8104,5.8153,5.8254,5.8269,5.8283,5.8339,5.8358,5.8119,5.8119,5.8119,0,5.6262,5.6473,5.6565,5.671,5.6804,5.6866,5.7007,5.7106,5.7304,5.7367,5.7351,5.7657,5.7764,5.7975,5.8014,5.8082,5.8122,5.8084,5.8259,5.8274,5.8289,5.8343,5.8364,5.812,5.812,5.812,5.812,0,5.6481,5.6626,5.672,5.6911,5.7015,5.7157,5.727,5.7365,5.7412,5.7496,5.768,5.781,5.7977,5.8031,5.8079,5.8249,5.8237,5.8239,5.8209,5.8306,5.8359,5.8381,5.8121,5.812,5.812,5.812,0,0,5.6581,5.6822,5.6854,5.6941,5.7124,5.7238,5.7382,5.7546,5.7625,5.7759,5.7882,5.8086,5.8089,5.8187,5.8246,5.8335,5.8453,5.8327,5.8332,5.8345,5.8647,5.8644,5.8667,5.8473,5.8477,5.8481,5.8634,0,5.6723,5.6985,5.7072,5.7288,5.7423,5.7484,5.761,5.7734,5.7817,5.7943,5.8033,5.8176,5.817,5.8229,5.832,5.8419,5.8514,5.8409,5.8587,5.8592,5.8546,5.8695,5.8692,5.883,5.8655,5.8659,5.8662,0,5.6923,5.7062,5.7292,5.7457,5.7517,5.7629,5.7786,5.7906,5.8048,5.8102,5.821,5.8264,5.8416,5.8377,5.8587,5.8514,5.8592,5.8651,5.8659,5.8678,5.8632,5.8717,5.8877,5.8897,5.8696,5.8693,5.869,0,5.6972,5.7216,5.7386,5.7458,5.7655,5.7732,5.7818,5.7957,5.805,5.8186,5.8248,5.84,5.8483,5.8599,5.8691,5.8655,5.8893,5.8862,5.8941,5.8938,5.8988,5.8983,5.9161,5.9039,5.9038,5.9038,5.9038,0,5.7121,5.7259,5.741,5.7514,5.767,5.7769,5.7921,5.8009,5.8132,5.8254,5.8315,5.8427,5.8542,5.8669,5.8742,5.8905,5.8942,5.8989,5.9006,5.8983,5.8977,5.9035,5.9028,5.9044,5.9042,5.9041,5.904,0,5.7202,5.7309,5.7497,5.7669,5.7715,5.7823,5.7969,5.8071,5.8157,5.8309,5.8351,5.8484,5.8637,5.874,5.8936,5.8985,5.9161,5.9177,5.9113,5.9121,5.9194,5.9185,5.9415,5.9449,5.9304,5.9305,5.9306,0,5.729,5.7398,5.7581,5.7667,5.7753,5.7891,5.7987,5.8088,5.8184,5.8354,5.8436,5.8593,5.8724,5.8964,5.9078,5.9227,5.9247,5.9317,5.927,5.9243,5.9248,5.924,5.9251,5.9324,5.9325,5.9326,5.9327,0,5.7433,5.7481,5.7617,5.7772,5.7884,5.801,5.8137,5.8203,5.8326,5.8431,5.8589,5.869,5.889,5.9045,5.9205,5.9291,5.933,5.9341,5.9367,5.9344,5.9302,5.9325,5.9132,5.9335,5.9334,5.9334,5.9333,5.9333,5.7521,5.7619,5.7764,5.7913,5.8019,5.8136,5.824,5.8339,5.8472,5.8644,5.8695,5.8858,5.8997,5.9216,5.9305,5.9434,5.9427,5.9465,5.9475,5.9482,5.9482,5.9282,5.9463,5.9463,5.9463,5.9463,5.9463,0,5.7667,5.7763,5.7899,5.8075,5.8192,5.8219,5.836,5.8456,5.8599,5.8726,5.8854,5.9034,5.9185,5.931,5.9465,5.9543,5.9565,5.9581,5.9575,5.9595,5.9479,5.9441,5.9561,5.9561,5.9561,5.9561,5.9561,5.9561,5.7757,5.7925,5.7989,5.821,5.8305,5.8467,5.8545,5.8653,5.8755,5.8954,5.9079,5.916,5.9287,5.9451,5.959,5.9623,5.9676,5.9688,5.9725,5.9614,5.9603,5.9592,5.9557,5.9699,5.9699,5.983,5.9831,5.9832]}]]